Regional Weather Roundup
Issued by NWS Charleston, WV

Home | Current Version | Previous Version | Graphics & Text | Print | Product List | Glossary On
Versions: 1 2 3 4 5 6 7 8 9 10 11 12 13 14 15 16 17 18 19 20 21 22 23 24 25 26 27 28 29 30 31 32 33 34 35 36 37 38 39 40 41 42 43 44 45 46 47 48 49 50
000
ASUS41 KRLX 012310
RWRRLX
West Virginia Regional Weather Roundup
National Weather Service Charleston WV
600 PM EST SUN MAR 01 2015

Note: "fair" indicates few or no clouds below 12,000 feet with no
significant weather and/or obstructions to visibility.

WVZ003-020000-
Northern Panhandle of West Virginia

CITY           SKY/WX    TMP DP  RH WIND       PRES   REMARKS
WHEELING       LGT RAIN  34  33  96 SW7       30.19F FOG
$$

WVZ009-020000-
Northwest West Virginia

CITY           SKY/WX    TMP DP  RH WIND       PRES   REMARKS
PARKERSBURG    LGT RAIN  38  33  82 S7        30.25F
$$

WVZ006-020000-
Western West Virginia

CITY           SKY/WX    TMP DP  RH WIND       PRES   REMARKS
HUNTINGTON     CLOUDY    39  38  96 S6        30.25F FOG
$$

WVZ015-020000-
West Central West Virginia

CITY           SKY/WX    TMP DP  RH WIND       PRES   REMARKS
CHARLESTON     LGT RAIN  41  39  93 SW6       30.25F FOG
$$

WVZ022-031-020000-
North Central West Virginia

CITY           SKY/WX    TMP DP  RH WIND       PRES   REMARKS
CLARKSBURG     LGT RAIN  40  39  97 SW10      30.22S FOG
MORGANTOWN     LGT SNOW  40  36  86 SW6       30.22R FOG
$$

WVZ025-035-042-045-020000-
Southern West Virginia

CITY           SKY/WX    TMP DP  RH WIND       PRES   REMARKS
BECKLEY        CLOUDY    41  38  89 W8        30.25F
LOGAN          CLOUDY    43  43 100 CALM      30.23S FOG
BLUEFIELD      LGT RAIN  46  42  86 W9        30.26F
LEWISBURG      LGT RAIN  36  34  94 CALM      30.26F
$$

WVZ047-020000-
Northern Mountains of West Virginia

CITY           SKY/WX    TMP DP  RH WIND       PRES   REMARKS
ELKINS         LGT RAIN  43  41  93 SW14G22   30.22F
$$

WVZ052-020000-
Eastern Panhandle of West Virginia

CITY           SKY/WX    TMP DP  RH WIND       PRES   REMARKS
MARTINSBURG    CLOUDY    32  28  85 E3        30.28F FOG
PETERSBURG     MIX PCPN  36  34  93 CALM      30.24F
$$



USA.gov is the U.S. government's official web portal to all federal, state and local government web resources and services.